Time,TemperatureF,DewpointF,PressureIn,WindDirection,WindDirectionDegrees,WindSpeedMPH,WindSpeedGustMPH,Humidity,HourlyPrecipIn,Conditions,Clouds,dailyrainin,SoftwareType,DateUTC
2013-03-27 00:00:00,36.2,28.8,29.90,South,180,2.2,6.6,74,0.00,,OVC,0.00,VWS V14.00,2013-03-27 04:00:00,
2013-03-27 00:05:00,36.1,28.7,29.90,SW,222,3.8,6.8,74,0.00,,OVC,0.00,VWS V14.00,2013-03-27 04:05:00,
2013-03-27 00:10:00,36.2,28.8,29.91,South,170,2.4,7.0,74,0.00,,OVC,0.00,VWS V14.00,2013-03-27 04:10:00,
2013-03-27 00:15:00,36.2,28.8,29.91,SW,229,2.9,7.0,74,0.00,,OVC,0.00,VWS V14.00,2013-03-27 04:15:00,
2013-03-27 00:20:00,36.0,28.8,29.90,SSW,197,4.5,7.0,75,0.00,,OVC,0.00,VWS V14.00,2013-03-27 04:20:00,
2013-03-27 00:26:00,35.8,28.8,29.90,SW,224,2.2,7.0,75,0.00,,OVC,0.00,VWS V14.00,2013-03-27 04:26:00,
2013-03-27 00:30:00,36.6,28.3,29.90,SW,221,2.5,9.3,72,0.00,,SCT,0.01,VWS V14.00,2013-03-27 04:30:00,
2013-03-27 00:31:00,35.7,28.8,29.90,South,191,2.6,4.3,76,0.00,,OVC,0.00,VWS V14.00,2013-03-27 04:31:00,
2013-03-27 00:36:00,35.7,28.7,29.91,South,179,1.7,6.6,76,0.00,,OVC,0.00,VWS V14.00,2013-03-27 04:36:00,
2013-03-27 00:41:00,35.5,28.7,29.90,SW,217,3.4,7.0,76,0.00,,OVC,0.00,VWS V14.00,2013-03-27 04:41:00,
2013-03-27 00:46:00,35.4,28.8,29.90,SW,232,2.7,7.0,77,0.00,,OVC,0.00,VWS V14.00,2013-03-27 04:46:00,
2013-03-27 00:51:00,35.1,28.9,29.90,SSW,212,5.9,7.0,78,0.00,,OVC,0.00,VWS V14.00,2013-03-27 04:51:00,
2013-03-27 00:56:00,35.1,29.1,29.90,SW,221,2.4,7.0,79,0.00,,OVC,0.00,VWS V14.00,2013-03-27 04:56:00,
2013-03-27 01:01:00,34.9,29.3,29.90,SW,215,5.0,8.1,80,0.00,,OVC,0.00,VWS V14.00,2013-03-27 05:01:00,
2013-03-27 01:06:00,34.9,29.3,29.90,SSW,202,4.6,8.1,80,0.00,,OVC,0.00,VWS V14.00,2013-03-27 05:06:00,
2013-03-27 01:16:00,34.8,29.4,29.90,South,184,3.2,8.1,80,0.00,,OVC,0.00,VWS V14.00,2013-03-27 05:16:00,
2013-03-27 01:21:00,34.8,29.5,29.90,SW,224,4.4,9.3,81,0.00,,OVC,0.00,VWS V14.00,2013-03-27 05:21:00,
2013-03-27 01:26:00,34.6,29.6,29.90,SW,229,5.1,9.3,82,0.00,,OVC,0.00,VWS V14.00,2013-03-27 05:26:00,
2013-03-27 01:30:00,35.7,28.9,29.91,SSW,202,2.2,7.0,76,0.00,,SCT,0.00,VWS V14.00,2013-03-27 05:30:00,
2013-03-27 01:36:00,34.7,29.6,29.90,South,187,4.2,7.6,82,0.00,,OVC,0.00,VWS V14.00,2013-03-27 05:36:00,
2013-03-27 01:41:00,34.8,29.8,29.90,SW,217,2.9,7.6,82,0.00,,OVC,0.00,VWS V14.00,2013-03-27 05:41:00,
2013-03-27 01:46:00,34.6,29.7,29.90,SSW,211,4.4,7.6,82,0.00,,OVC,0.00,VWS V14.00,2013-03-27 05:46:00,
2013-03-27 01:51:00,34.6,29.7,29.90,SW,218,4.7,7.6,82,0.00,,OVC,0.00,VWS V14.00,2013-03-27 05:51:00,
2013-03-27 01:56:00,34.7,29.9,29.90,SW,236,4.3,8.3,82,0.00,,OVC,0.00,VWS V14.00,2013-03-27 05:56:00,
2013-03-27 02:00:00,34.9,29.3,29.90,SW,214,8.1,8.5,80,0.00,,SCT,0.00,VWS V14.00,2013-03-27 06:00:00,
2013-03-27 02:01:00,34.6,29.9,29.90,SW,219,6.7,6.7,83,0.00,,OVC,0.00,VWS V14.00,2013-03-27 06:01:00,
2013-03-27 02:06:00,34.6,29.9,29.90,SW,231,5.4,7.8,83,0.00,,OVC,0.00,VWS V14.00,2013-03-27 06:06:00,
2013-03-27 02:11:00,34.5,29.9,29.90,SW,224,6.1,7.8,83,0.00,,OVC,0.00,VWS V14.00,2013-03-27 06:11:00,
2013-03-27 02:22:00,34.6,30.0,29.90,WSW,238,4.4,7.8,83,0.00,,OVC,0.00,VWS V14.00,2013-03-27 06:22:00,
2013-03-27 02:27:00,34.7,30.0,29.90,SSW,211,4.0,8.7,83,0.00,,OVC,0.00,VWS V14.00,2013-03-27 06:27:00,
2013-03-27 02:30:00,34.7,29.6,29.90,SSW,195,2.8,9.3,81,0.00,,SCT,0.00,VWS V14.00,2013-03-27 06:30:00,
2013-03-27 02:32:00,34.7,30.0,29.90,SSW,212,4.0,7.1,83,0.00,,OVC,0.00,VWS V14.00,2013-03-27 06:32:00,
2013-03-27 02:37:00,34.7,30.0,29.90,SW,232,4.7,9.7,83,0.00,,OVC,0.00,VWS V14.00,2013-03-27 06:37:00,
2013-03-27 02:42:00,34.7,30.0,29.90,WSW,242,4.5,9.7,83,0.00,,OVC,0.00,VWS V14.00,2013-03-27 06:42:00,
2013-03-27 02:47:00,34.7,30.1,29.90,SW,229,3.5,9.7,83,0.00,,OVC,0.00,VWS V14.00,2013-03-27 06:47:00,
2013-03-27 02:52:00,34.8,30.1,29.90,SW,221,3.4,9.7,83,0.00,,OVC,0.00,VWS V14.00,2013-03-27 06:52:00,
2013-03-27 02:57:00,34.7,30.1,29.90,SW,217,6.4,9.7,83,0.00,,OVC,0.00,VWS V14.00,2013-03-27 06:57:00,
2013-03-27 03:00:00,34.7,29.9,29.90,SW,222,6.1,8.3,82,0.00,,SCT,0.00,VWS V14.00,2013-03-27 07:00:00,
2013-03-27 03:02:00,34.8,30.1,29.90,SSW,202,4.0,5.8,83,0.00,,OVC,0.00,VWS V14.00,2013-03-27 07:02:00,
2013-03-27 03:07:00,34.7,30.1,29.90,SSW,201,3.2,6.2,83,0.00,,OVC,0.00,VWS V14.00,2013-03-27 07:07:00,
2013-03-27 03:12:00,34.7,30.1,29.90,WSW,250,4.0,6.6,83,0.00,,OVC,0.00,VWS V14.00,2013-03-27 07:12:00,
2013-03-27 03:17:00,34.8,30.2,29.90,SW,221,4.7,6.6,83,0.00,,OVC,0.00,VWS V14.00,2013-03-27 07:17:00,
2013-03-27 03:22:00,34.6,30.0,29.90,SSW,211,3.5,6.6,83,0.00,,OVC,0.00,VWS V14.00,2013-03-27 07:22:00,
2013-03-27 03:27:00,34.7,30.2,29.90,SSW,201,3.4,6.6,83,0.00,,OVC,0.00,VWS V14.00,2013-03-27 07:27:00,
2013-03-27 03:30:00,34.7,30.1,29.90,SSW,205,4.0,8.7,83,0.00,,SCT,0.00,VWS V14.00,2013-03-27 07:30:00,
2013-03-27 03:32:00,34.7,30.2,29.90,WSW,240,4.0,5.8,83,0.00,,OVC,0.00,VWS V14.00,2013-03-27 07:32:00,
2013-03-27 03:37:00,34.6,30.0,29.90,SW,218,3.5,5.8,83,0.00,,OVC,0.00,VWS V14.00,2013-03-27 07:37:00,
2013-03-27 03:42:00,34.7,30.2,29.90,SSW,200,4.1,5.8,84,0.00,,OVC,0.00,VWS V14.00,2013-03-27 07:42:00,
2013-03-27 03:47:00,34.6,30.1,29.90,SSW,204,0.0,5.8,84,0.00,,OVC,0.00,VWS V14.00,2013-03-27 07:47:00,
2013-03-27 03:52:00,34.6,30.1,29.90,SW,224,3.3,5.8,84,0.00,,OVC,0.00,VWS V14.00,2013-03-27 07:52:00,
2013-03-27 03:57:00,34.7,30.2,29.90,SSW,198,1.1,5.8,83,0.00,,OVC,0.00,VWS V14.00,2013-03-27 07:57:00,
2013-03-27 04:00:00,34.8,30.2,29.90,SW,219,3.2,9.7,83,0.00,,SCT,0.00,VWS V14.00,2013-03-27 08:00:00,
2013-03-27 04:02:00,34.7,30.2,29.90,South,180,0.0,0.0,83,0.00,,OVC,0.00,VWS V14.00,2013-03-27 08:02:00,
2013-03-27 04:07:00,34.6,30.0,29.90,SSW,201,1.7,3.0,83,0.00,,OVC,0.00,VWS V14.00,2013-03-27 08:07:00,
2013-03-27 04:12:00,34.6,30.0,29.90,South,184,0.0,3.0,83,0.00,,OVC,0.00,VWS V14.00,2013-03-27 08:12:00,
2013-03-27 04:17:00,34.6,30.1,29.90,WSW,239,1.9,3.8,83,0.00,,OVC,0.00,VWS V14.00,2013-03-27 08:17:00,
2013-03-27 04:22:00,34.6,30.1,29.90,SSW,201,1.6,3.8,83,0.00,,OVC,0.00,VWS V14.00,2013-03-27 08:22:00,
2013-03-27 04:27:00,34.5,30.0,29.90,WSW,250,1.4,4.2,83,0.00,,OVC,0.00,VWS V14.00,2013-03-27 08:27:00,
2013-03-27 04:30:00,34.7,30.2,29.90,SW,231,3.7,6.6,83,0.00,,SCT,0.00,VWS V14.00,2013-03-27 08:30:00,
2013-03-27 04:32:00,34.5,29.9,29.90,WSW,248,0.0,1.4,83,0.00,,OVC,0.00,VWS V14.00,2013-03-27 08:32:00,
2013-03-27 04:37:00,34.3,29.9,29.90,SSW,198,4.2,5.0,84,0.00,,OVC,0.00,VWS V14.00,2013-03-27 08:37:00,
2013-03-27 04:43:00,34.5,30.0,29.90,SW,229,2.1,5.6,83,0.00,,OVC,0.00,VWS V14.00,2013-03-27 08:43:00,
2013-03-27 04:48:00,34.5,29.9,29.90,SW,236,1.5,5.6,83,0.00,,OVC,0.00,VWS V14.00,2013-03-27 08:48:00,
2013-03-27 04:53:00,34.5,29.9,29.90,WSW,248,1.2,5.6,83,0.00,,OVC,0.00,VWS V14.00,2013-03-27 08:53:00,
2013-03-27 04:58:00,34.4,29.8,29.90,SSW,195,2.4,5.6,83,0.00,,OVC,0.00,VWS V14.00,2013-03-27 08:58:00,
2013-03-27 05:00:00,34.6,30.1,29.90,South,180,0.0,5.8,83,0.00,,SCT,0.00,VWS V14.00,2013-03-27 09:00:00,
2013-03-27 05:03:00,34.3,29.8,29.90,SW,225,3.1,6.6,83,0.00,,OVC,0.00,VWS V14.00,2013-03-27 09:03:00,
2013-03-27 05:08:00,34.3,29.8,29.90,SW,229,6.6,7.8,83,0.00,,OVC,0.00,VWS V14.00,2013-03-27 09:08:00,
2013-03-27 05:13:00,34.5,29.8,29.90,SW,224,9.0,9.5,83,0.00,,OVC,0.00,VWS V14.00,2013-03-27 09:13:00,
2013-03-27 05:18:00,34.8,29.9,29.90,SSW,210,4.1,9.7,82,0.00,,OVC,0.00,VWS V14.00,2013-03-27 09:18:00,
2013-03-27 05:23:00,34.7,29.8,29.90,SSW,208,3.0,9.7,82,0.00,,OVC,0.00,VWS V14.00,2013-03-27 09:23:00,
2013-03-27 05:28:00,34.8,29.8,29.90,SW,236,0.0,9.7,82,0.00,,OVC,0.00,VWS V14.00,2013-03-27 09:28:00,
2013-03-27 05:30:00,34.6,30.0,29.90,SW,219,0.0,4.2,83,0.00,,SCT,0.00,VWS V14.00,2013-03-27 09:30:00,
2013-03-27 05:33:00,34.9,29.9,29.91,SSW,205,0.0,1.4,82,0.00,,OVC,0.00,VWS V14.00,2013-03-27 09:33:00,
2013-03-27 05:38:00,34.6,29.6,29.90,SSW,211,2.9,4.9,82,0.00,,OVC,0.00,VWS V14.00,2013-03-27 09:38:00,
2013-03-27 05:43:00,34.6,29.6,29.91,SSW,193,2.0,5.7,82,0.00,,OVC,0.00,VWS V14.00,2013-03-27 09:43:00,
2013-03-27 05:48:00,34.8,29.7,29.91,SW,217,2.4,5.7,82,0.00,,OVC,0.00,VWS V14.00,2013-03-27 09:48:00,
2013-03-27 05:53:00,34.9,29.8,29.91,SSW,200,1.5,5.7,82,0.00,,OVC,0.00,VWS V14.00,2013-03-27 09:53:00,
2013-03-27 05:58:00,34.8,29.7,29.91,SSW,207,0.0,5.7,82,0.00,,OVC,0.00,VWS V14.00,2013-03-27 09:58:00,
2013-03-27 06:00:00,34.4,29.9,29.90,SW,214,6.5,6.5,83,0.00,,SCT,0.00,VWS V14.00,2013-03-27 10:00:00,
2013-03-27 06:03:00,34.7,29.7,29.90,SSE,159,6.3,7.2,82,0.00,,OVC,0.00,VWS V14.00,2013-03-27 10:03:00,
2013-03-27 06:08:00,34.6,29.6,29.91,WSW,242,4.0,7.2,82,0.00,,OVC,0.00,VWS V14.00,2013-03-27 10:08:00,
2013-03-27 06:13:00,34.7,29.8,29.91,SW,215,0.0,7.2,82,0.00,,OVC,0.00,VWS V14.00,2013-03-27 10:13:00,
2013-03-27 06:18:00,34.7,29.7,29.92,WSW,240,0.0,7.2,82,0.00,,OVC,0.00,VWS V14.00,2013-03-27 10:18:00,
2013-03-27 06:23:00,34.5,29.6,29.92,WSW,240,0.0,7.2,82,0.00,,OVC,0.00,VWS V14.00,2013-03-27 10:23:00,
2013-03-27 06:28:00,34.5,29.7,29.92,WSW,240,0.0,7.2,82,0.00,,OVC,0.00,VWS V14.00,2013-03-27 10:28:00,
2013-03-27 06:30:00,34.8,29.9,29.90,SW,224,0.0,9.7,82,0.00,,SCT,0.00,VWS V14.00,2013-03-27 10:30:00,
2013-03-27 06:33:00,34.5,29.6,29.92,WSW,240,0.0,0.0,82,0.00,,OVC,0.00,VWS V14.00,2013-03-27 10:33:00,
2013-03-27 06:38:00,34.5,29.6,29.92,South,172,0.0,1.2,82,0.00,,OVC,0.00,VWS V14.00,2013-03-27 10:38:00,
2013-03-27 06:43:00,34.4,29.5,29.92,South,172,0.0,1.2,82,0.00,,OVC,0.00,VWS V14.00,2013-03-27 10:43:00,
2013-03-27 06:48:00,34.3,29.5,29.92,South,172,0.0,1.2,82,0.00,,OVC,0.00,VWS V14.00,2013-03-27 10:48:00,
2013-03-27 06:53:00,34.3,29.6,29.92,SSW,205,0.0,2.4,83,0.00,,OVC,0.00,VWS V14.00,2013-03-27 10:53:00,
2013-03-27 06:58:00,34.2,29.6,29.92,SW,214,1.7,3.1,83,0.00,,OVC,0.00,VWS V14.00,2013-03-27 10:58:00,
2013-03-27 07:00:00,34.8,29.7,29.90,SSW,207,0.0,5.7,82,0.00,,SCT,0.00,VWS V14.00,2013-03-27 11:00:00,
2013-03-27 07:03:00,34.2,29.5,29.92,SW,214,0.0,0.0,83,0.00,,OVC,0.00,VWS V14.00,2013-03-27 11:03:00,
2013-03-27 07:08:00,34.2,29.7,29.93,SW,214,0.0,0.0,84,0.00,,OVC,0.00,VWS V14.00,2013-03-27 11:08:00,
2013-03-27 07:13:00,34.1,29.8,29.93,SW,214,0.0,0.0,84,0.00,,OVC,0.00,VWS V14.00,2013-03-27 11:13:00,
2013-03-27 07:18:00,34.1,29.7,29.93,WSW,238,0.0,2.2,84,0.00,,OVC,0.00,VWS V14.00,2013-03-27 11:18:00,
2013-03-27 07:23:00,34.1,29.8,29.93,SW,236,3.2,3.5,84,0.00,,OVC,0.00,VWS V14.00,2013-03-27 11:23:00,
2013-03-27 07:28:00,34.1,29.8,29.93,SSW,198,0.0,3.9,84,0.00,,OVC,0.00,VWS V14.00,2013-03-27 11:28:00,
2013-03-27 07:30:00,34.4,29.6,29.92,WSW,240,0.0,7.2,82,0.00,,SCT,0.00,VWS V14.00,2013-03-27 11:30:00,
2013-03-27 07:33:00,33.9,29.7,29.93,SSW,198,0.0,0.0,84,0.00,,OVC,0.00,VWS V14.00,2013-03-27 11:33:00,
2013-03-27 07:38:00,34.1,30.0,29.93,SW,224,2.9,4.7,85,0.00,,OVC,0.00,VWS V14.00,2013-03-27 11:38:00,
2013-03-27 07:43:00,34.0,30.0,29.94,SSW,197,3.2,5.5,85,0.00,,OVC,0.00,VWS V14.00,2013-03-27 11:43:00,
2013-03-27 07:48:00,34.1,30.1,29.94,SW,225,0.0,5.5,85,0.00,,OVC,0.00,VWS V14.00,2013-03-27 11:48:00,
2013-03-27 07:53:00,34.2,30.2,29.94,SW,226,3.6,5.7,85,0.00,,OVC,0.00,VWS V14.00,2013-03-27 11:53:00,
2013-03-27 07:58:00,34.1,30.1,29.94,SW,232,2.5,6.2,85,0.00,,OVC,0.00,VWS V14.00,2013-03-27 11:58:00,
2013-03-27 08:00:00,34.3,29.6,29.92,SW,214,0.0,3.1,83,0.00,,SCT,0.00,VWS V14.00,2013-03-27 12:00:00,
2013-03-27 08:03:00,34.2,30.2,29.94,SW,217,2.1,6.2,85,0.00,,OVC,0.00,VWS V14.00,2013-03-27 12:03:00,
2013-03-27 08:08:00,34.3,30.3,29.94,SW,233,3.7,6.8,85,0.00,,OVC,0.00,VWS V14.00,2013-03-27 12:08:00,
2013-03-27 08:13:00,34.2,30.2,29.94,SW,232,4.4,7.2,85,0.00,,OVC,0.00,VWS V14.00,2013-03-27 12:13:00,
2013-03-27 08:18:00,34.3,30.2,29.94,SW,226,5.8,7.3,85,0.00,,OVC,0.00,VWS V14.00,2013-03-27 12:18:00,
2013-03-27 08:23:00,34.4,30.3,29.95,WSW,243,5.3,7.4,85,0.00,,OVC,0.00,VWS V14.00,2013-03-27 12:23:00,
2013-03-27 08:28:00,34.5,30.3,29.95,SW,224,4.1,7.8,84,0.00,,OVC,0.00,VWS V14.00,2013-03-27 12:28:00,
2013-03-27 08:30:00,34.0,29.7,29.93,SSW,198,0.0,3.9,84,0.00,,SCT,0.00,VWS V14.00,2013-03-27 12:30:00,
2013-03-27 08:33:00,34.6,30.5,29.95,WSW,240,3.5,6.8,85,0.00,,OVC,0.00,VWS V14.00,2013-03-27 12:33:00,
2013-03-27 08:38:00,34.8,30.6,29.95,SW,229,1.1,6.8,84,0.00,,OVC,0.00,VWS V14.00,2013-03-27 12:38:00,
2013-03-27 08:43:00,35.0,30.7,29.95,SSW,202,2.1,6.8,84,0.00,,OVC,0.00,VWS V14.00,2013-03-27 12:43:00,
2013-03-27 08:48:00,35.0,30.6,29.95,NW,311,3.4,6.8,84,0.00,,OVC,0.00,VWS V14.00,2013-03-27 12:48:00,
2013-03-27 08:53:00,35.2,30.5,29.96,SW,233,1.4,8.3,83,0.00,,OVC,0.00,VWS V14.00,2013-03-27 12:53:00,
2013-03-27 08:58:00,35.2,30.3,29.96,WSW,248,3.3,8.3,82,0.00,,OVC,0.00,VWS V14.00,2013-03-27 12:58:00,
2013-03-27 09:00:00,34.2,30.2,29.94,SSW,207,2.7,6.2,85,0.00,,SCT,0.00,VWS V14.00,2013-03-27 13:00:00,
2013-03-27 09:03:00,35.2,30.2,29.96,SSW,211,3.4,8.0,82,0.00,,OVC,0.00,VWS V14.00,2013-03-27 13:03:00,
2013-03-27 09:08:00,35.2,29.9,29.96,SW,217,11.0,11.0,81,0.00,,OVC,0.00,VWS V14.00,2013-03-27 13:08:00,
2013-03-27 09:13:00,35.3,30.0,29.96,WSW,243,4.7,11.0,81,0.00,,OVC,0.00,VWS V14.00,2013-03-27 13:13:00,
2013-03-27 09:18:00,35.4,29.9,29.96,SSW,195,7.1,11.0,80,0.00,,OVC,0.00,VWS V14.00,2013-03-27 13:18:00,
2013-03-27 09:23:00,35.1,29.6,29.96,SW,225,5.0,11.0,80,0.00,,OVC,0.00,VWS V14.00,2013-03-27 13:23:00,
2013-03-27 09:28:00,35.3,29.9,29.96,SW,217,5.7,11.0,80,0.00,,OVC,0.00,VWS V14.00,2013-03-27 13:28:00,
2013-03-27 09:30:00,34.6,30.5,29.95,SW,231,4.8,7.8,85,0.00,,SCT,0.00,VWS V14.00,2013-03-27 13:30:00,
2013-03-27 09:33:00,35.6,29.7,29.96,SW,222,6.1,8.1,79,0.00,,OVC,0.00,VWS V14.00,2013-03-27 13:33:00,
2013-03-27 09:38:00,36.0,29.6,29.96,SW,219,5.5,9.1,77,0.00,,OVC,0.00,VWS V14.00,2013-03-27 13:38:00,
2013-03-27 09:43:00,36.2,29.7,29.96,WSW,248,3.9,9.8,77,0.00,,OVC,0.00,VWS V14.00,2013-03-27 13:43:00,
2013-03-27 09:48:00,36.5,30.2,29.96,SW,232,5.2,10.2,78,0.00,,OVC,0.00,VWS V14.00,2013-03-27 13:48:00,
2013-03-27 09:53:00,36.9,30.0,29.96,West,266,2.2,10.2,76,0.00,,OVC,0.00,VWS V14.00,2013-03-27 13:53:00,
2013-03-27 09:58:00,37.3,30.1,29.96,SW,225,3.7,10.2,75,0.00,,OVC,0.00,VWS V14.00,2013-03-27 13:58:00,
2013-03-27 10:00:00,35.1,30.2,29.96,WSW,245,4.1,8.3,82,0.00,,SCT,0.00,VWS V14.00,2013-03-27 14:00:00,
2013-03-27 10:03:00,37.8,31.0,29.96,SW,235,4.6,6.7,76,0.00,,OVC,0.00,VWS V14.00,2013-03-27 14:03:00,
2013-03-27 10:08:00,37.9,30.1,29.96,West,266,2.9,7.1,73,0.00,,OVC,0.00,VWS V14.00,2013-03-27 14:08:00,
2013-03-27 10:13:00,38.3,30.0,29.96,SSW,201,3.5,7.1,72,0.00,,OVC,0.00,VWS V14.00,2013-03-27 14:13:00,
2013-03-27 10:18:00,38.7,29.2,29.96,WNW,284,4.2,7.3,68,0.00,,OVC,0.00,VWS V14.00,2013-03-27 14:18:00,
2013-03-27 10:23:00,39.0,29.0,29.96,West,270,3.6,8.1,67,0.00,,OVC,0.00,VWS V14.00,2013-03-27 14:23:00,
2013-03-27 10:28:00,39.2,29.4,29.96,WNW,295,2.7,8.1,68,0.00,,OVC,0.00,VWS V14.00,2013-03-27 14:28:00,
2013-03-27 10:30:00,35.4,29.9,29.96,WSW,256,5.8,11.0,80,0.00,,SCT,0.00,VWS V14.00,2013-03-27 14:30:00,
2013-03-27 10:33:00,39.7,29.4,29.97,WNW,301,7.3,7.7,66,0.00,,OVC,0.00,VWS V14.00,2013-03-27 14:33:00,
2013-03-27 10:38:00,40.1,30.0,29.96,West,269,3.5,10.1,67,0.00,,OVC,0.00,VWS V14.00,2013-03-27 14:38:00,
2013-03-27 10:44:00,40.5,29.6,29.96,NW,314,2.5,10.1,65,0.00,,OVC,0.00,VWS V14.00,2013-03-27 14:44:00,
2013-03-27 10:49:00,40.8,29.0,29.96,North,356,2.7,10.1,62,0.00,,OVC,0.00,VWS V14.00,2013-03-27 14:49:00,
2013-03-27 10:54:00,40.8,29.2,29.96,NW,311,5.2,10.8,63,0.00,,OVC,0.00,VWS V14.00,2013-03-27 14:54:00,
2013-03-27 10:59:00,40.9,29.6,29.97,West,276,0.0,10.8,64,0.00,,OVC,0.00,VWS V14.00,2013-03-27 14:59:00,
2013-03-27 11:00:00,37.3,30.2,29.96,SW,226,3.0,10.2,75,0.00,,SCT,0.00,VWS V14.00,2013-03-27 15:00:00,
2013-03-27 11:04:00,41.1,30.0,29.96,SW,228,7.8,7.8,64,0.00,,OVC,0.00,VWS V14.00,2013-03-27 15:04:00,
2013-03-27 11:09:00,40.9,28.9,29.97,NW,311,5.6,9.2,62,0.00,,OVC,0.00,VWS V14.00,2013-03-27 15:09:00,
2013-03-27 11:14:00,41.1,29.8,29.96,WSW,243,1.3,9.2,64,0.00,,OVC,0.00,VWS V14.00,2013-03-27 15:14:00,
2013-03-27 11:19:00,41.4,29.3,29.96,WNW,300,7.5,9.6,62,0.00,,OVC,0.00,VWS V14.00,2013-03-27 15:19:00,
2013-03-27 11:24:00,41.5,29.0,29.97,North,353,4.5,9.6,61,0.00,,OVC,0.00,VWS V14.00,2013-03-27 15:24:00,
2013-03-27 11:29:00,41.9,30.4,29.97,West,264,1.7,9.6,63,0.00,,OVC,0.00,VWS V14.00,2013-03-27 15:29:00,
2013-03-27 11:30:00,39.4,29.1,29.97,NW,319,2.7,8.1,66,0.00,,SCT,0.00,VWS V14.00,2013-03-27 15:30:00,
2013-03-27 11:34:00,42.2,29.4,29.97,WNW,300,6.4,8.3,60,0.00,,OVC,0.00,VWS V14.00,2013-03-27 15:34:00,
2013-03-27 11:39:00,42.8,30.2,29.96,West,266,4.2,10.0,61,0.00,,OVC,0.00,VWS V14.00,2013-03-27 15:39:00,
2013-03-27 11:44:00,43.0,29.1,29.96,WNW,290,5.7,15.3,58,0.00,,OVC,0.00,VWS V14.00,2013-03-27 15:44:00,
2013-03-27 11:49:00,42.3,29.6,29.96,WNW,292,8.1,17.3,60,0.00,,OVC,0.00,VWS V14.00,2013-03-27 15:49:00,
2013-03-27 11:54:00,42.7,29.3,29.96,NNW,345,3.7,17.3,59,0.00,,OVC,0.00,VWS V14.00,2013-03-27 15:54:00,
2013-03-27 11:59:00,43.7,30.2,29.97,WNW,298,4.5,17.3,59,0.00,,OVC,0.00,VWS V14.00,2013-03-27 15:59:00,
2013-03-27 12:00:00,40.9,29.7,29.96,West,276,0.0,10.8,64,0.00,,SCT,0.00,VWS V14.00,2013-03-27 16:00:00,
2013-03-27 12:04:00,43.4,29.4,29.96,WNW,300,4.7,10.9,57,0.00,,OVC,0.00,VWS V14.00,2013-03-27 16:04:00,
2013-03-27 12:09:00,43.1,29.6,29.97,NW,325,4.8,10.9,59,0.00,,OVC,0.00,VWS V14.00,2013-03-27 16:09:00,
2013-03-27 12:14:00,43.5,29.2,29.96,WNW,288,7.5,14.3,57,0.00,,OVC,0.00,VWS V14.00,2013-03-27 16:14:00,
2013-03-27 12:19:00,43.6,28.9,29.97,WNW,295,6.8,14.3,56,0.00,,OVC,0.00,VWS V14.00,2013-03-27 16:19:00,
2013-03-27 12:24:00,43.4,29.7,29.97,WNW,302,5.3,14.3,58,0.00,,OVC,0.00,VWS V14.00,2013-03-27 16:24:00,
2013-03-27 12:29:00,43.0,30.7,29.96,WNW,295,0.0,14.3,62,0.00,,OVC,0.00,VWS V14.00,2013-03-27 16:29:00,
2013-03-27 12:30:00,41.8,29.7,29.97,WSW,257,0.9,9.6,62,0.00,,SCT,0.00,VWS V14.00,2013-03-27 16:30:00,
2013-03-27 12:34:00,42.7,28.8,29.97,WNW,297,6.9,9.6,58,0.00,,OVC,0.00,VWS V14.00,2013-03-27 16:34:00,
2013-03-27 12:39:00,43.0,29.8,29.97,West,276,7.8,9.6,59,0.00,,OVC,0.00,VWS V14.00,2013-03-27 16:39:00,
2013-03-27 12:44:00,42.7,29.5,29.97,NNW,339,6.1,9.6,59,0.00,,OVC,0.00,VWS V14.00,2013-03-27 16:44:00,
2013-03-27 12:49:00,42.8,30.1,29.97,West,280,3.7,9.6,60,0.00,,OVC,0.00,VWS V14.00,2013-03-27 16:49:00,
2013-03-27 12:54:00,43.0,30.0,29.97,NNW,343,1.1,9.6,60,0.00,,OVC,0.00,VWS V14.00,2013-03-27 16:54:00,
2013-03-27 12:59:00,42.8,29.3,29.97,WNW,292,4.7,9.6,58,0.00,,OVC,0.00,VWS V14.00,2013-03-27 16:59:00,
2013-03-27 13:00:00,43.7,31.2,29.97,NE,44,3.5,17.3,61,0.00,,SCT,0.00,VWS V14.00,2013-03-27 17:00:00,
2013-03-27 13:04:00,43.0,30.1,29.97,WNW,287,6.0,10.4,60,0.00,,OVC,0.00,VWS V14.00,2013-03-27 17:04:00,
2013-03-27 13:09:00,42.9,30.4,29.97,NW,308,0.0,10.4,61,0.00,,OVC,0.00,VWS V14.00,2013-03-27 17:09:00,
2013-03-27 13:14:00,43.2,30.1,29.97,West,278,5.7,10.4,60,0.00,,OVC,0.00,VWS V14.00,2013-03-27 17:14:00,
2013-03-27 13:19:00,42.5,29.2,29.97,WNW,285,9.7,12.4,59,0.00,,OVC,0.00,VWS V14.00,2013-03-27 17:19:00,
2013-03-27 13:24:00,42.5,29.9,29.97,NW,318,3.2,12.4,61,0.00,,OVC,0.00,VWS V14.00,2013-03-27 17:24:00,
2013-03-27 13:29:00,42.2,30.3,29.97,WNW,301,6.2,12.4,62,0.00,,OVC,0.00,VWS V14.00,2013-03-27 17:29:00,
2013-03-27 13:30:00,43.1,30.8,29.96,NNW,338,4.0,14.3,62,0.00,,SCT,0.00,VWS V14.00,2013-03-27 17:30:00,
2013-03-27 13:34:00,42.2,31.0,29.97,WNW,300,8.3,11.0,64,0.00,,OVC,0.00,VWS V14.00,2013-03-27 17:34:00,
2013-03-27 13:39:00,42.3,30.9,29.97,WNW,295,6.3,11.0,64,0.00,,OVC,0.00,VWS V14.00,2013-03-27 17:39:00,
2013-03-27 13:44:00,42.0,30.2,29.97,WNW,302,6.4,11.0,63,0.00,,OVC,0.00,VWS V14.00,2013-03-27 17:44:00,
2013-03-27 13:49:00,42.3,30.0,29.97,West,281,8.6,11.0,61,0.00,,OVC,0.00,VWS V14.00,2013-03-27 17:49:00,
2013-03-27 13:54:00,42.3,30.0,29.97,West,264,4.2,11.0,61,0.00,,OVC,0.00,VWS V14.00,2013-03-27 17:54:00,
2013-03-27 13:59:00,43.0,31.9,29.97,West,262,2.7,11.0,64,0.00,,OVC,0.00,VWS V14.00,2013-03-27 17:59:00,
2013-03-27 14:00:00,42.7,29.2,29.97,NW,309,5.1,9.6,58,0.00,,SCT,0.00,VWS V14.00,2013-03-27 18:00:00,
2013-03-27 14:04:00,43.5,31.5,29.97,NW,311,3.7,8.7,62,0.00,,OVC,0.00,VWS V14.00,2013-03-27 18:04:00,
2013-03-27 14:09:00,43.5,31.1,29.97,NW,319,3.1,8.7,61,0.00,,OVC,0.00,VWS V14.00,2013-03-27 18:09:00,
2013-03-27 14:14:00,43.0,30.6,29.97,NW,325,3.4,8.7,61,0.00,,OVC,0.00,VWS V14.00,2013-03-27 18:14:00,
2013-03-27 14:19:00,42.9,30.1,29.97,West,277,8.8,8.8,60,0.00,,OVC,0.00,VWS V14.00,2013-03-27 18:19:00,
2013-03-27 14:24:00,42.8,30.5,29.97,WNW,298,3.1,9.7,61,0.00,,OVC,0.00,VWS V14.00,2013-03-27 18:24:00,
2013-03-27 14:29:00,42.9,30.5,29.97,WNW,302,4.0,10.6,61,0.00,,OVC,0.00,VWS V14.00,2013-03-27 18:29:00,
2013-03-27 14:30:00,42.2,30.3,29.97,NW,307,5.0,12.4,62,0.00,,SCT,0.00,VWS V14.00,2013-03-27 18:30:00,
2013-03-27 14:34:00,43.1,30.4,29.97,NNE,13,2.5,7.0,60,0.00,,OVC,0.00,VWS V14.00,2013-03-27 18:34:00,
2013-03-27 14:39:00,43.3,30.7,29.97,NNW,330,0.0,8.7,61,0.00,,OVC,0.00,VWS V14.00,2013-03-27 18:39:00,
2013-03-27 14:44:00,43.7,30.5,29.97,NW,309,4.5,8.7,60,0.00,,OVC,0.00,VWS V14.00,2013-03-27 18:44:00,
2013-03-27 14:49:00,43.6,29.3,29.97,West,269,6.0,8.7,57,0.00,,OVC,0.00,VWS V14.00,2013-03-27 18:49:00,
2013-03-27 14:54:00,43.4,29.3,29.97,WNW,290,6.3,11.0,57,0.00,,OVC,0.00,VWS V14.00,2013-03-27 18:54:00,
2013-03-27 14:59:00,43.3,29.6,29.97,NNW,332,7.0,11.0,58,0.00,,OVC,0.00,VWS V14.00,2013-03-27 18:59:00,
2013-03-27 15:00:00,43.0,31.9,29.97,West,271,1.1,11.0,64,0.00,,SCT,0.00,VWS V14.00,2013-03-27 19:00:00,
2013-03-27 15:04:00,42.9,29.0,29.97,WNW,300,3.9,9.4,58,0.00,,OVC,0.00,VWS V14.00,2013-03-27 19:04:00,
2013-03-27 15:09:00,43.0,29.3,29.97,West,260,7.5,9.4,58,0.00,,OVC,0.00,VWS V14.00,2013-03-27 19:09:00,
2013-03-27 15:14:00,43.0,30.7,29.97,West,277,3.7,9.4,62,0.00,,OVC,0.00,VWS V14.00,2013-03-27 19:14:00,
2013-03-27 15:19:00,43.5,29.7,29.97,NNW,345,3.5,9.4,58,0.00,,OVC,0.00,VWS V14.00,2013-03-27 19:19:00,
2013-03-27 15:24:00,43.7,29.8,29.97,NW,307,1.4,9.4,58,0.00,,OVC,0.00,VWS V14.00,2013-03-27 19:24:00,
2013-03-27 15:29:00,43.8,30.0,29.97,WNW,301,4.2,4.7,58,0.00,,OVC,0.00,VWS V14.00,2013-03-27 19:29:00,
2013-03-27 15:30:00,42.9,30.5,29.97,NW,314,3.4,10.6,61,0.00,,SCT,0.00,VWS V14.00,2013-03-27 19:30:00,
2013-03-27 15:34:00,43.7,30.0,29.97,NW,326,1.2,7.1,58,0.00,,OVC,0.00,VWS V14.00,2013-03-27 19:34:00,
2013-03-27 15:39:00,43.4,29.3,29.97,WNW,297,5.7,9.4,57,0.00,,OVC,0.00,VWS V14.00,2013-03-27 19:39:00,
2013-03-27 15:44:00,43.3,29.3,29.97,NNW,333,2.8,9.4,58,0.00,,OVC,0.00,VWS V14.00,2013-03-27 19:44:00,
2013-03-27 15:49:00,43.3,29.1,29.97,NW,305,8.5,9.5,57,0.00,,OVC,0.00,VWS V14.00,2013-03-27 19:49:00,
2013-03-27 15:54:00,43.3,29.1,29.97,NW,312,4.6,10.9,57,0.00,,OVC,0.00,VWS V14.00,2013-03-27 19:54:00,
2013-03-27 15:59:00,43.7,29.3,29.97,NNW,332,7.0,7.0,56,0.00,,OVC,0.00,VWS V14.00,2013-03-27 19:59:00,
2013-03-27 16:00:00,43.3,29.6,29.97,NNW,332,7.0,11.0,58,0.00,,SCT,0.00,VWS V14.00,2013-03-27 20:00:00,
2013-03-27 16:04:00,44.3,29.6,29.97,NNW,336,5.8,15.3,56,0.00,,OVC,0.00,VWS V14.00,2013-03-27 20:04:00,
2013-03-27 16:09:00,43.7,29.4,29.97,NW,305,6.5,15.3,57,0.00,,OVC,0.00,VWS V14.00,2013-03-27 20:09:00,
2013-03-27 16:14:00,43.5,28.5,29.97,NW,308,4.2,15.3,55,0.00,,OVC,0.00,VWS V14.00,2013-03-27 20:14:00,
2013-03-27 16:19:00,43.5,28.8,29.97,NNW,328,4.4,15.3,56,0.00,,OVC,0.00,VWS V14.00,2013-03-27 20:19:00,
2013-03-27 16:24:00,43.7,30.0,29.97,WNW,285,2.1,15.3,58,0.00,,OVC,0.00,VWS V14.00,2013-03-27 20:24:00,
2013-03-27 16:29:00,43.5,28.9,29.98,WNW,298,8.7,10.4,56,0.00,,OVC,0.00,VWS V14.00,2013-03-27 20:29:00,
2013-03-27 16:30:00,43.8,30.0,29.97,WNW,298,4.7,9.4,58,0.00,,SCT,0.00,VWS V14.00,2013-03-27 20:30:00,
2013-03-27 16:34:00,43.6,28.8,29.98,WNW,294,2.1,10.4,56,0.00,,OVC,0.00,VWS V14.00,2013-03-27 20:34:00,
2013-03-27 16:39:00,43.8,29.0,29.98,NW,318,4.8,10.4,56,0.00,,OVC,0.00,VWS V14.00,2013-03-27 20:39:00,
2013-03-27 16:44:00,43.4,28.9,29.98,NW,304,9.3,10.7,56,0.00,,OVC,0.00,VWS V14.00,2013-03-27 20:44:00,
2013-03-27 16:49:00,43.4,28.7,29.98,NW,312,4.7,10.9,56,0.00,,OVC,0.00,VWS V14.00,2013-03-27 20:49:00,
2013-03-27 16:55:00,43.6,29.0,29.98,NNE,13,0.0,10.9,56,0.00,,OVC,0.00,VWS V14.00,2013-03-27 20:55:00,
2013-03-27 17:00:00,43.6,28.8,29.98,WNW,301,4.7,6.3,56,0.00,,OVC,0.00,VWS V14.00,2013-03-27 21:00:00,
2013-03-27 17:05:00,43.8,29.1,29.98,NW,309,7.0,7.5,56,0.00,,OVC,0.00,VWS V14.00,2013-03-27 21:05:00,
2013-03-27 17:10:00,43.6,29.8,29.99,NW,308,4.2,7.9,58,0.00,,OVC,0.00,VWS V14.00,2013-03-27 21:10:00,
2013-03-27 17:15:00,43.6,29.1,29.99,NW,315,6.3,8.5,56,0.00,,OVC,0.00,VWS V14.00,2013-03-27 21:15:00,
2013-03-27 17:20:00,43.4,29.9,29.99,NW,319,0.8,8.5,59,0.00,,OVC,0.00,VWS V14.00,2013-03-27 21:20:00,
2013-03-27 17:25:00,43.6,29.9,29.99,North,359,5.7,8.5,58,0.00,,OVC,0.00,VWS V14.00,2013-03-27 21:25:00,
2013-03-27 17:30:00,43.6,28.6,29.99,NNE,18,4.3,6.5,55,0.00,,OVC,0.00,VWS V14.00,2013-03-27 21:30:00,
2013-03-27 17:35:00,44.1,30.0,29.99,NW,315,7.9,7.9,57,0.00,,OVC,0.00,VWS V14.00,2013-03-27 21:35:00,
2013-03-27 17:40:00,44.2,28.9,29.99,NNE,28,6.8,8.9,55,0.00,,OVC,0.00,VWS V14.00,2013-03-27 21:40:00,
2013-03-27 17:45:00,44.0,29.7,29.99,West,264,0.0,8.9,57,0.00,,OVC,0.00,VWS V14.00,2013-03-27 21:45:00,
2013-03-27 17:50:00,44.1,29.5,30.00,NNE,20,0.0,8.9,56,0.00,,OVC,0.00,VWS V14.00,2013-03-27 21:50:00,
2013-03-27 17:55:00,43.8,29.0,30.00,NW,316,0.0,8.9,56,0.00,,OVC,0.00,VWS V14.00,2013-03-27 21:55:00,
2013-03-27 18:00:00,43.6,28.7,30.00,NNW,343,2.9,4.9,55,0.00,,OVC,0.00,VWS V14.00,2013-03-27 22:00:00,
2013-03-27 18:05:00,43.4,28.3,30.00,WNW,290,4.1,8.4,55,0.00,,OVC,0.00,VWS V14.00,2013-03-27 22:05:00,
2013-03-27 18:10:00,43.2,28.5,30.00,NW,312,7.4,8.5,56,0.00,,OVC,0.00,VWS V14.00,2013-03-27 22:10:00,
2013-03-27 18:15:00,43.2,28.2,30.00,NW,318,3.7,8.7,55,0.00,,OVC,0.00,VWS V14.00,2013-03-27 22:15:00,
2013-03-27 18:20:00,43.3,28.2,30.00,North,359,7.1,8.7,55,0.00,,OVC,0.00,VWS V14.00,2013-03-27 22:20:00,
2013-03-27 18:25:00,43.5,28.5,30.00,NW,323,1.9,8.7,55,0.00,,OVC,0.00,VWS V14.00,2013-03-27 22:25:00,
2013-03-27 18:30:00,43.6,29.4,30.01,NW,318,3.2,6.2,57,0.00,,OVC,0.00,VWS V14.00,2013-03-27 22:30:00,
2013-03-27 18:35:00,42.8,27.9,30.01,NW,319,5.1,9.4,55,0.00,,OVC,0.00,VWS V14.00,2013-03-27 22:35:00,
2013-03-27 18:40:00,42.5,27.8,30.01,WNW,300,6.3,10.3,56,0.00,,OVC,0.00,VWS V14.00,2013-03-27 22:40:00,
2013-03-27 18:45:00,42.4,27.9,30.01,North,354,7.0,10.3,56,0.00,,OVC,0.00,VWS V14.00,2013-03-27 22:45:00,
2013-03-27 18:50:00,42.2,28.6,30.01,NW,322,2.8,10.3,58,0.00,,OVC,0.00,VWS V14.00,2013-03-27 22:50:00,
2013-03-27 18:55:00,42.0,28.3,30.01,NNW,333,0.9,10.3,58,0.00,,OVC,0.00,VWS V14.00,2013-03-27 22:55:00,
2013-03-27 19:00:00,41.9,28.5,30.01,NNW,345,1.4,4.0,59,0.00,,OVC,0.00,VWS V14.00,2013-03-27 23:00:00,
2013-03-27 19:05:00,41.7,27.9,30.02,NW,314,0.0,9.0,58,0.00,,OVC,0.00,VWS V14.00,2013-03-27 23:05:00,
2013-03-27 19:10:00,41.6,28.0,30.02,NW,325,3.2,9.0,58,0.00,,OVC,0.00,VWS V14.00,2013-03-27 23:10:00,
2013-03-27 19:15:00,41.7,28.3,30.02,NNW,345,0.0,9.0,59,0.00,,OVC,0.00,VWS V14.00,2013-03-27 23:15:00,
2013-03-27 19:20:00,41.5,27.9,30.02,West,281,6.8,9.0,58,0.00,,OVC,0.00,VWS V14.00,2013-03-27 23:20:00,
2013-03-27 19:25:00,41.3,27.7,30.02,WNW,302,3.7,11.1,58,0.00,,OVC,0.00,VWS V14.00,2013-03-27 23:25:00,
2013-03-27 19:30:00,41.4,27.5,30.02,West,278,0.0,1.2,58,0.00,,OVC,0.00,VWS V14.00,2013-03-27 23:30:00,
2013-03-27 19:35:00,41.2,27.8,30.02,West,277,0.6,6.7,58,0.00,,OVC,0.00,VWS V14.00,2013-03-27 23:35:00,
2013-03-27 19:40:00,41.2,27.9,30.02,West,277,0.0,6.7,59,0.00,,OVC,0.00,VWS V14.00,2013-03-27 23:40:00,
2013-03-27 19:45:00,40.8,27.5,30.02,West,277,0.0,6.7,59,0.00,,OVC,0.00,VWS V14.00,2013-03-27 23:45:00,
2013-03-27 19:50:00,40.6,27.5,30.02,West,277,0.0,6.7,59,0.00,,OVC,0.00,VWS V14.00,2013-03-27 23:50:00,
2013-03-27 19:55:00,40.6,27.4,30.02,West,277,0.0,6.7,59,0.00,,OVC,0.00,VWS V14.00,2013-03-27 23:55:00,
2013-03-27 20:00:00,40.5,27.5,30.03,WNW,301,0.0,0.0,60,0.00,,OVC,0.00,VWS V14.00,2013-03-28 00:00:00,
2013-03-27 20:10:00,40.2,27.5,30.02,WNW,301,0.0,0.0,60,0.00,,OVC,0.00,VWS V14.00,2013-03-28 00:10:00,
2013-03-27 20:15:00,40.2,27.5,30.02,WNW,301,0.0,0.0,60,0.00,,OVC,0.00,VWS V14.00,2013-03-28 00:15:00,
2013-03-27 20:20:00,40.2,27.5,30.02,WNW,301,0.0,0.0,60,0.00,,OVC,0.00,VWS V14.00,2013-03-28 00:20:00,
2013-03-27 20:25:00,40.2,27.5,30.02,WNW,301,0.0,0.0,60,0.00,,OVC,0.00,VWS V14.00,2013-03-28 00:25:00,
2013-03-27 20:30:00,39.8,27.4,30.03,WNW,301,0.0,0.0,61,0.00,,OVC,0.00,VWS V14.00,2013-03-28 00:30:00,
2013-03-27 20:35:00,39.5,27.6,30.03,WNW,301,0.0,0.0,62,0.00,,OVC,0.00,VWS V14.00,2013-03-28 00:35:00,
2013-03-27 20:40:00,39.4,27.5,30.03,WNW,301,0.0,0.0,62,0.00,,OVC,0.00,VWS V14.00,2013-03-28 00:40:00,
2013-03-27 20:45:00,38.7,27.3,30.03,SW,235,1.2,1.4,63,0.00,,OVC,0.00,VWS V14.00,2013-03-28 00:45:00,
2013-03-27 20:50:00,38.0,27.1,30.03,SW,235,0.0,1.4,65,0.00,,OVC,0.00,VWS V14.00,2013-03-28 00:50:00,
2013-03-27 20:55:00,37.7,27.2,30.04,SW,235,0.0,1.4,65,0.00,,OVC,0.00,VWS V14.00,2013-03-28 00:55:00,
2013-03-27 21:00:00,37.8,27.3,30.04,SW,235,0.0,0.0,66,0.00,,OVC,0.00,VWS V14.00,2013-03-28 01:00:00,
2013-03-27 21:05:00,38.0,27.5,30.04,SW,235,0.0,0.0,66,0.00,,OVC,0.00,VWS V14.00,2013-03-28 01:05:00,
2013-03-27 21:10:00,37.7,27.3,30.04,SW,235,0.0,0.0,66,0.00,,OVC,0.00,VWS V14.00,2013-03-28 01:10:00,
2013-03-27 21:15:00,37.8,27.4,30.04,SW,235,0.0,0.0,66,0.00,,OVC,0.00,VWS V14.00,2013-03-28 01:15:00,
2013-03-27 21:20:00,37.9,27.4,30.04,SW,235,0.0,0.0,66,0.00,,OVC,0.00,VWS V14.00,2013-03-28 01:20:00,
2013-03-27 21:25:00,37.8,27.2,30.04,SW,235,0.0,0.0,65,0.00,,OVC,0.00,VWS V14.00,2013-03-28 01:25:00,
2013-03-27 21:30:00,40.0,27.6,30.03,WNW,301,0.0,0.0,61,0.00,,SCT,0.00,VWS V14.00,2013-03-28 01:30:00,
2013-03-27 21:31:00,38.0,27.5,30.04,SW,235,0.0,0.0,65,0.00,,OVC,0.00,VWS V14.00,2013-03-28 01:31:00,
2013-03-27 21:36:00,37.8,27.5,30.04,SW,235,0.0,0.0,66,0.00,,OVC,0.00,VWS V14.00,2013-03-28 01:36:00,
2013-03-27 21:41:00,37.7,27.7,30.04,SW,235,0.0,0.0,67,0.00,,OVC,0.00,VWS V14.00,2013-03-28 01:41:00,
2013-03-27 21:46:00,37.4,27.7,30.04,SW,235,0.0,0.0,68,0.00,,OVC,0.00,VWS V14.00,2013-03-28 01:46:00,
2013-03-27 21:51:00,37.4,27.6,30.04,SW,235,0.0,0.0,67,0.00,,OVC,0.00,VWS V14.00,2013-03-28 01:51:00,
2013-03-27 21:56:00,37.6,27.7,30.04,SW,235,0.0,0.0,67,0.00,,OVC,0.00,VWS V14.00,2013-03-28 01:56:00,
2013-03-27 22:00:00,37.7,27.2,30.04,SW,235,0.0,1.4,66,0.00,,SCT,0.00,VWS V14.00,2013-03-28 02:00:00,
2013-03-27 22:01:00,37.8,27.8,30.04,SW,235,0.0,0.0,67,0.00,,OVC,0.00,VWS V14.00,2013-03-28 02:01:00,
2013-03-27 22:06:00,37.8,27.8,30.04,SW,235,0.0,0.0,67,0.00,,OVC,0.00,VWS V14.00,2013-03-28 02:06:00,
2013-03-27 22:11:00,37.7,27.9,30.04,SW,235,0.0,0.0,68,0.00,,OVC,0.00,VWS V14.00,2013-03-28 02:11:00,
2013-03-27 22:16:00,37.4,27.8,30.04,SW,235,0.0,0.0,68,0.00,,OVC,0.00,VWS V14.00,2013-03-28 02:16:00,
2013-03-27 22:21:00,37.3,27.7,30.04,SW,235,0.0,0.0,68,0.00,,OVC,0.00,VWS V14.00,2013-03-28 02:21:00,
2013-03-27 22:26:00,37.2,27.7,30.04,SW,235,0.0,0.0,68,0.00,,OVC,0.00,VWS V14.00,2013-03-28 02:26:00,
2013-03-27 22:30:00,38.0,27.4,30.04,SW,235,0.0,0.0,65,0.00,,SCT,0.00,VWS V14.00,2013-03-28 02:30:00,
2013-03-27 22:31:00,37.2,27.8,30.04,SW,235,0.0,0.0,69,0.00,,OVC,0.00,VWS V14.00,2013-03-28 02:31:00,
2013-03-27 22:36:00,37.0,27.8,30.04,SW,235,0.0,0.0,69,0.00,,OVC,0.00,VWS V14.00,2013-03-28 02:36:00,
2013-03-27 22:41:00,37.0,27.8,30.04,SW,235,0.0,0.0,69,0.00,,OVC,0.00,VWS V14.00,2013-03-28 02:41:00,
2013-03-27 22:56:00,36.9,27.8,30.04,SW,235,0.0,0.0,69,0.00,,OVC,0.00,VWS V14.00,2013-03-28 02:56:00,
2013-03-27 23:00:00,37.7,27.7,30.04,SW,235,0.0,0.0,67,0.00,,SCT,0.00,VWS V14.00,2013-03-28 03:00:00,
2013-03-27 23:01:00,36.9,27.8,30.04,SW,235,0.0,0.0,69,0.00,,OVC,0.00,VWS V14.00,2013-03-28 03:01:00,
2013-03-27 23:06:00,36.8,27.8,30.04,SW,235,0.0,0.0,70,0.00,,OVC,0.00,VWS V14.00,2013-03-28 03:06:00,
2013-03-27 23:11:00,36.7,27.8,30.04,SW,235,0.0,0.0,70,0.00,,OVC,0.00,VWS V14.00,2013-03-28 03:11:00,
2013-03-27 23:16:00,36.6,27.6,30.04,SW,235,0.0,0.0,70,0.00,,OVC,0.00,VWS V14.00,2013-03-28 03:16:00,
2013-03-27 23:21:00,36.6,27.6,30.04,SW,235,0.0,0.0,70,0.00,,OVC,0.00,VWS V14.00,2013-03-28 03:21:00,
2013-03-27 23:26:00,36.6,27.6,30.04,SW,235,0.0,0.0,70,0.00,,OVC,0.00,VWS V14.00,2013-03-28 03:26:00,
2013-03-27 23:30:00,37.1,27.7,30.04,SW,235,0.0,0.0,68,0.00,,SCT,0.00,VWS V14.00,2013-03-28 03:30:00,
2013-03-27 23:31:00,36.7,27.5,30.04,SW,235,0.0,0.0,69,0.00,,OVC,0.00,VWS V14.00,2013-03-28 03:31:00,
2013-03-27 23:36:00,36.7,27.5,30.04,SW,235,0.0,0.0,69,0.00,,OVC,0.00,VWS V14.00,2013-03-28 03:36:00,
2013-03-27 23:41:00,36.7,27.5,30.04,SW,235,0.0,0.0,69,0.00,,OVC,0.00,VWS V14.00,2013-03-28 03:41:00,
2013-03-27 23:46:00,36.7,27.5,30.04,SW,235,0.0,0.0,69,0.00,,OVC,0.00,VWS V14.00,2013-03-28 03:46:00,
2013-03-27 23:52:00,36.8,27.6,30.04,SW,235,0.0,0.0,69,0.00,,OVC,0.00,VWS V14.00,2013-03-28 03:52:00,
2013-03-27 23:57:00,36.7,27.4,30.04,SW,235,0.0,0.0,69,0.00,,OVC,0.00,VWS V14.00,2013-03-28 03:57:00,